New London Weather Center

Moon Phase Calendar



Online Cameras

 


      

Current Conditions in Groton
11/30/2020 12:02:18 AM

43°F
Feels Like 36
Clear
Humidity
70%
Pressure
30.12"
Wind
8 mph (SW)
Dew Point
34°F
UV Index
0/10 (Low)
Visibility
6 mi

Hourly Forecast

Date & Time Mon, Nov 30
12:00 AM
Mon, Nov 30
1:00 AM
Mon, Nov 30
2:00 AM
Mon, Nov 30
3:00 AM
Mon, Nov 30
4:00 AM
Mon, Nov 30
5:00 AM
Mon, Nov 30
6:00 AM
Mon, Nov 30
7:00 AM
Mon, Nov 30
8:00 AM
Mon, Nov 30
9:00 AM
Mon, Nov 30
10:00 AM
Mon, Nov 30
11:00 AM
Mon, Nov 30
12:00 PM
Mon, Nov 30
1:00 PM
Mon, Nov 30
2:00 PM
Mon, Nov 30
3:00 PM
Mon, Nov 30
4:00 PM
Mon, Nov 30
5:00 PM
Mon, Nov 30
6:00 PM
Mon, Nov 30
7:00 PM
Mon, Nov 30
8:00 PM
Mon, Nov 30
9:00 PM
Mon, Nov 30
10:00 PM
Mon, Nov 30
11:00 PM
Tue, Dec 1
12:00 AM
Tue, Dec 1
1:00 AM
Tue, Dec 1
2:00 AM
Tue, Dec 1
3:00 AM
Tue, Dec 1
4:00 AM
Tue, Dec 1
5:00 AM
Tue, Dec 1
6:00 AM
Tue, Dec 1
7:00 AM
Tue, Dec 1
8:00 AM
Tue, Dec 1
9:00 AM
Tue, Dec 1
10:00 AM
Tue, Dec 1
11:00 AM
Tue, Dec 1
12:00 PM
Tue, Dec 1
1:00 PM
Tue, Dec 1
2:00 PM
Tue, Dec 1
3:00 PM
Tue, Dec 1
4:00 PM
Tue, Dec 1
5:00 PM
Tue, Dec 1
6:00 PM
Tue, Dec 1
7:00 PM
Tue, Dec 1
8:00 PM
Tue, Dec 1
9:00 PM
Tue, Dec 1
10:00 PM
Tue, Dec 1
11:00 PM
Condition
Clear

Clouds

Clouds

Clouds

Clouds

Clouds

Clouds

Clouds

Clouds

Clouds

Rain

Rain

Rain

Rain

Rain

Rain

Rain

Rain

Rain

Rain

Rain

Rain

Rain

Rain

Clouds

Clouds

Clear

Clear

Clear

Clear

Clouds

Clouds

Clouds

Rain

Rain

Clouds

Clouds

Clouds

Clear

Clear

Clear

Clouds

Clouds

Clouds

Clouds

Clouds

Clouds

Clouds
Temperature 43°F46°F47°F49°F50°F50°F51°F51°F53°F55°F56°F58°F58°F58°F59°F60°F59°F61°F62°F61°F61°F61°F61°F60°F60°F59°F58°F57°F56°F56°F55°F55°F55°F56°F57°F56°F53°F52°F51°F50°F49°F47°F46°F46°F45°F45°F45°F44°F
Feels Like 36°F39°F41°F43°F44°F45°F45°F45°F45°F46°F46°F47°F46°F46°F42°F42°F44°F50°F52°F53°F53°F54°F53°F53°F53°F53°F53°F52°F52°F51°F50°F51°F51°F50°F46°F43°F37°F36°F35°F36°F35°F33°F33°F32°F32°F32°F32°F31°F
Cloudiness 1%41%79%94%99%100%100%100%100%100%100%100%100%100%100%100%100%100%100%100%100%100%100%95%92%87%4%2%2%6%22%35%48%74%66%61%66%65%2%1%9%29%41%51%94%96%96%96%
Visibility 6 mi6 mi6 mi6 mi6 mi6 mi6 mi6 mi6 mi6 mi6 mi4 mi3 mi2 mi3 mi4 mi4 mi6 mi6 mi6 mi6 mi6 mi6 mi6 mi6 mi6 mi6 mi6 mi6 mi6 mi6 mi6 mi6 mi6 mi6 mi6 mi6 mi6 mi6 mi6 mi6 mi6 mi6 mi6 mi6 mi6 mi6 mi6 mi
Precipitation 0%0%0%0%0%0%0%0%0%10%82%100%100%100%100%100%100%100%100%100%100%100%100%99%77%83%0%0%0%0%0%0%13%64%86%85%73%60%0%1%0%0%0%0%2%7%7%4%
Humidity 70%71%73%74%75%75%76%79%79%80%87%89%89%91%90%90%92%94%93%93%92%93%90%89%88%89%89%91%92%92%92%92%91%85%81%73%76%65%63%65%67%66%66%63%64%64%63%65%
Dew Point 34°F37°F39°F41°F42°F43°F44°F45°F47°F49°F52°F55°F55°F56°F56°F57°F57°F59°F60°F60°F59°F59°F58°F58°F56°F56°F55°F55°F54°F54°F53°F53°F52°F52°F52°F48°F46°F41°F39°F39°F38°F37°F36°F34°F34°F33°F33°F33°F
Pressure 30.12"30.12"30.09"30.09"30.06"30.03"30.03"30"29.97"29.94"29.91"29.83"29.77"29.68"29.65"29.59"29.56"29.56"29.53"29.5"29.5"29.5"29.53"29.53"29.53"29.56"29.56"29.56"29.56"29.56"29.56"29.56"29.56"29.56"29.56"29.56"29.56"29.59"29.59"29.62"29.65"29.65"29.71"29.77"29.8"29.8"29.83"29.83"
Wind Speed 7.5 mph7.7 mph6.9 mph6.9 mph7.1 mph6.9 mph8.2 mph9.6 mph12.2 mph15.3 mph17.9 mph21.1 mph24.4 mph25.3 mph32.3 mph34.8 mph32.1 mph24.6 mph23.8 mph21.1 mph19.6 mph18.2 mph20.2 mph16.6 mph14.8 mph12.8 mph12.4 mph11.5 mph10.8 mph10.4 mph10.3 mph8.3 mph8.8 mph12.8 mph20.9 mph23.4 mph26.7 mph23.6 mph24.1 mph21.2 mph19.1 mph19.9 mph18.1 mph18.4 mph17.8 mph16.4 mph16.2 mph16.4 mph
Wind
Direction
209°
SSW
210°
SSW
199°
SSW
190°
S
171°
S
156°
SSE
118°
ESE
107°
ESE
102°
ESE
108°
ESE
120°
ESE
133°
SE
141°
SE
137°
SE
153°
SSE
162°
SSE
154°
SSE
164°
SSE
174°
S
166°
SSE
179°
S
176°
S
180°
S
189°
S
185°
S
186°
S
179°
S
178°
S
182°
S
184°
S
186°
S
196°
SSW
167°
SSE
158°
SSE
188°
S
200°
SSW
228°
SW
221°
SW
223°
SW
221°
SW
223°
SW
230°
SW
230°
SW
235°
SW
231°
SW
231°
SW
229°
SW
230°
SW

Daily Forecast

Date High Low Precip. Humidity
Today
Nov 30

Rain
62 °F
43 °F
100%
89%
Tuesday
Dec 1

Rain
60 °F
45 °F
86%
73%
Wednesday
Dec 2

Clouds
44 °F
40 °F
2%
64%
Thursday
Dec 3

Clear
45 °F
39 °F
0%
66%
Friday
Dec 4

Rain
47 °F
42 °F
100%
88%
Saturday
Dec 5

Clear
44 °F
37 °F
9%
70%
Sunday
Dec 6

Clear
46 °F
37 °F
0%
71%
Monday
Dec 7

Rain
43 °F
26 °F
79%
71%
Tuesday
Dec 8

Clouds
32 °F
24 °F
12%
78%
Wednesday
Dec 9

Snow
38 °F
30 °F
75%
77%
Thursday
Dec 10

Clouds
43 °F
31 °F
0%
66%
Friday
Dec 11

Clouds
44 °F
34 °F
0%
69%
Saturday
Dec 12

Clouds
44 °F
32 °F
0%
74%
Sunday
Dec 13

Rain
58 °F
34 °F
100%
96%
Monday
Dec 14

Clear
34 °F
29 °F
0%
81%
Tuesday
Dec 15

Clear
38 °F
30 °F
0%
80%


Temperature 8-14 Day Outlook



Precipitation 8-14 Day Outlook




Quick Links
New London News
New London Photos
New London Videos




About Us
Contact Us
Site Map
Search Site
Advertise With Us
   
NewLondon.USCoast.info
THE NEW LONDON WEBSITE

Copyright 2020, Coastal Town
Privacy    |    Legal